Location: Poughquag
(41.6090°N, 73.6820°W)
Time: 13:17:42
(UTC-04:00)

Courier 1B - Pass Details

Date: 06 June 2020
Orbit: 962 x 1209 km, 28.3° (Epoch: 05 July)

Event Time Altitude Azimuth Distance (km) Brightness Sun altitude
Rises 21:14:24 0° 221° (SW) 3,724 10.6 -8.1°
Reaches altitude 10° 21:17:52 10° 204° (SSW) 2,816 9.7 -8.5°
Maximum altitude 21:22:28 19° 161° (SSE) 2,280 8.9 -9.2°
Enters shadow 21:26:46 11° 122° (ESE) 2,837 9.3 -9.8°
